User: anonymous   Login
Location: Caltech
(34.1382°N, 118.1253°W)
Time: 00:43:47
(UTC-07:00)
Language:

Iridium 95 - Orbit

View from above orbital plane
View from above orbital plane
View from above satellite
View from above satellite

Ground track
Ground track

The orbit data is extracted from the following two-line orbital elements,

1 27375U 02005D   16149.35202841  .00000186  00000-0  59420-4 0  9996
2 27375  86.3981  88.4720 0002169  85.5295 274.6148 14.34217983755755
Epoch (UTC): 28 May 2016 08:26:55
Eccentricity: 0.0002169
inclination: 86.3981°
perigee height: 776 km
apogee height: 779 km
right ascension of ascending node: 88.4720°
argument of perigee: 85.5295°
revolutions per day: 14.34217983
mean anomaly at epoch: 274.6148°
orbit number at epoch: 75575

The dashed part of the orbit path shows where the satellite is in the earth's shadow,  

DLR